,

(GMT )
Banff

Weather History for CWZG - February, 2014

Change the Weather History Date:

Saturday, February 1, 2014

  Actual Average Record
Temperature  
Mean Temperature 3 °F -  
Max Temperature 16 °F - - ()
Min Temperature -10 °F - - ()
Degree Days  
Heating Degree Days 62    
Moisture  
Dew Point -5 °F    
Average Humidity 71    
Maximum Humidity 87    
Minimum Humidity 47    
Precipitation  
Precipitation 0.00 in - - ()
Sea Level Pressure  
Sea Level Pressure 30.21 in    
Wind  
Wind Speed 4 mph ()    
Max Wind Speed 10 mph    
Max Gust Speed 17 mph    
T = Trace of Precipitation, MM = Missing Value Source: Averaged Metar Reports

Daily Weather History Graph

Daily Weather History Graph

Search for Another Location

Airport or City:

Trip Planner

Search our weather history database for the weather conditions in past years. The results will help you decide how hot, cold, wet, or windy it might be!

Date:

Astronomy

Feb. 01, 2014 Rise Set
Actual Time 8:19 AM MST 5:33 PM MST
Civil Twilight 7:43 AM MST 6:09 PM MST
Nautical Twilight 7:03 AM MST 6:48 PM MST
Astronomical Twilight 6:24 AM MST 7:27 PM MST
Moon 8:51 AM MST (2/1) 8:37 PM MST (2/1)
Length of Visible Light 10h 25m
Length of Day
9h 13m
Waxing Crescent, 5% of the Moon is Illuminated
Feb 1
Waxing Crescent
Feb 6
First Quarter
Feb 14
Full
Feb 22
Last Quarter
Mar 1
New

Hourly Weather History & Observations

Time (MST) Temp. Windchill Dew Point Humidity Pressure Visibility Wind Dir Wind Speed Gust Speed Precip Events Conditions
12:00 AM -0.2 °F - -3.8 °F 85% 30.22 in - West 1.2 mph - N/A   Unknown
1:00 AM -2.6 °F -10.8 °F -5.8 °F 86% 30.22 in - SW 3.5 mph - N/A   Unknown
2:00 AM -4.2 °F -12.6 °F -7.2 °F 87% 30.23 in - SW 3.5 mph - N/A   Unknown
3:00 AM -6.0 °F - -9.2 °F 86% 30.24 in - WSW 1.2 mph - N/A   Unknown
4:00 AM -7.1 °F -15.9 °F -10.5 °F 85% 30.25 in - SSW 3.5 mph - N/A   Unknown
5:00 AM -8.3 °F - -11.6 °F 86% 30.26 in - SW 2.3 mph - N/A   Unknown
6:00 AM -9.4 °F - -13.0 °F 84% 30.28 in - West 1.2 mph - N/A   Unknown
7:00 AM -10.1 °F -19.4 °F -13.7 °F 84% 30.27 in - SW 3.5 mph - N/A   Unknown
8:00 AM -10.3 °F -21.9 °F -14.3 °F 83% 30.27 in - SW 4.6 mph - N/A   Unknown
9:00 AM -9.8 °F -21.3 °F -14.1 °F 81% 30.27 in - SW 4.6 mph - N/A   Unknown
10:00 AM -7.1 °F -19.9 °F -13.0 °F 75% 30.25 in - SW 5.8 mph - N/A   Unknown
11:00 AM -0.4 °F -12.0 °F -9.2 °F 66% 30.23 in - WSW 5.8 mph - N/A   Unknown
12:00 PM 5.9 °F -7.0 °F -4.7 °F 62% 30.21 in - WSW 8.1 mph - N/A   Unknown
1:00 PM 8.6 °F -2.6 °F -2.4 °F 61% 30.18 in - SW 6.9 mph - N/A   Unknown
2:00 PM 14.0 °F 5.1 °F -0.9 °F 52% 30.13 in - SW 5.8 mph - N/A   Unknown
3:00 PM 16.5 °F 4.3 °F 0.5 °F 49% 30.10 in - SW 10.4 mph 17.3 mph N/A   Unknown
4:00 PM 16.7 °F 4.5 °F -0.6 °F 47% 30.11 in - SW 10.4 mph 17.3 mph N/A   Unknown
5:00 PM 15.3 °F 4.4 °F -0.0 °F 51% 30.12 in - SW 8.1 mph - N/A   Unknown
6:00 PM 12.9 °F 1.6 °F 1.0 °F 59% 30.14 in - SW 8.1 mph - N/A   Unknown
7:00 PM 10.2 °F 0.6 °F 0.7 °F 65% 30.18 in - SSW 5.8 mph - N/A   Unknown
8:00 PM 11.3 °F -0.4 °F 0.7 °F 62% 30.19 in - SSW 8.1 mph - N/A   Unknown
9:00 PM 8.8 °F 0.4 °F 1.0 °F 71% 30.20 in - WSW 4.6 mph - N/A   Unknown
10:00 PM 7.7 °F -2.4 °F 0.3 °F 72% 30.20 in - West 5.8 mph - N/A   Unknown
11:00 PM 7.3 °F -1.3 °F 1.2 °F 76% 30.19 in - WSW 4.6 mph - N/A   Unknown